SCP
0 0 0 0 0 0 -0 -0 -0 0 0 0 0 0 -0 0 0 0 0 0 0 0 0 0 0 0 0 0 0 0 0 0 -0 0 0 0 0 0 0 0 0 0 0
0 0 0 0 0 0 -0 -0 -0 0 0 0 0 0 0 0 0 0 0 0 0 0 0 0 0 0 0 0 0 -0 0 0 0 0 0 0 0 0 0 0 0 -0 0
0 0 0 0 0 0 0 -0 -0 0 0 0 0 0 0 0 0 0 0 0 0 0 0 0 0 0 0 0 0 -0 -0 -0 0 0 0 0 0 -0 0 0 0 0 0
0 0 0 0 0 0 0 0 -0 0 0 0 0 0 -0 -0 0 0 0 0 0 0 0 0 0 0 0 0 0 0 -0 -0 -0 0 0 0 0 -0 -0 0 0 0 0
0 0 0 0 -0 0 0 0 -0 0 0 0 0 0 0 0 0 0 0 0 0 0 0 0 0 0 0 0 0 0 0 -0 -0 0 -0 -0 -0 -0 -0 0 0 0 0
0 0 0 0 0 -0 0 0 0 0 0 0 0 0 0 0 0 0 0 0 0 0 0 -0 -0 -0 -0 0 0 0 0 0 -0 0 -0 -0 -0 -0 0 -0 0 0 0
0 0 0 0 0 0 0 0 0 0 0 0 0 0 0 0 0 0 0 0 -0 0 0 -0 -0 -0 -0 -0 -0 -0 0 -0 -0 -0 -0 0 0 -0 0 -0 -0 -0 0
0 0 0 0 0 0 0 0 0 0 0 0 0 0 0 0 0 0 -0 0 0 0 -0 -0 -0 -0 -0 -0 -0 -0 -0 0 0 0 -0 0 0 0 -0 -0 -0 -0 -0
0 0 0 0 0 0 0 0 0 0 0 0 0 0 0 0 0 0 0 -0 -0 -0 -0 -0 -0 -0 -0 -0 -0 -0 -0 -0 -0 0 0 0 -0 0 -0 -0 -0 0 -0
0 0 0 0 0 0 0 0 0 0 0 0 0 0 0 0 0 0 0 -0 0 -0 -0 -0 -0 -0 -0 -0 -0 -0 -0 -0 -0 -0 -0 0 0 0 0 0 0 0 0
0 0 0 0 0 0 0 0 0 0 0 0 0 0 0 0 0 0 0 -0 0 -0 -0 -0 -0 -0 -0 -0 -0 -0 -0 -0 -0 0 0 -0 0 0 0 0 0 0 0
-0 -0 0 0 0 0 0 0 0 0 0 0 0 0 0 0 0 0 0 0 0 0 -0 -0 0 0 -0 0 0 -0 -0 -0 -0 0 0 0 0 0 0 0 0 0 0
0 0 0 -0 0 0 0 0 0 0 0 0 0 0 0 0 0 0 0 0 0 0 0 0 0 0 0 0 0 0 -0 0 0 0 0 0 0 0 0 0 0 0 0
-0 0 0 0 0 0 0 0 0 0 0 0 0 0 0 0 0 0 0 0 0 0 0 0 0 0 0 0 0 0 0 0 0 0 0 0 -0 0 0 0 0 0 0
-0 0 0 0 0 0 0 0 0 0 0 0 0 0 0 0 0 0 0 0 0 0 0 0 0 0 0 0 0 0 0 0 0 0 0 0 0 0 0 0 0 0 0
0 0 0 0 0 0 0 0 0 0 0 0 0 0 0 0 0 0 0 0 0 0 0 0 0 0 0 0 0 0 0 0 0 0 0 0 0 0 0 0 0 0 0
0 0 0 0 0 0 0 0 0 0 0 0 0 0 0 0 0 0 0 0 0 0 0 0 0 0 0 0 0 0 0 0 0 0 0 0 0 0 0 0 0 0 0
0 0 0 0 0 0 0 0 0 0 0 0 0 0 0 0 0 0 0 0 0 0 0 0 0 0 0 0 0 0 0 0 0 0 0 0 0 0 0 0 0 0 0
0 0 0 0 0 0 0 0 0 0 0 0 0 0 0 0 0 0 0 0 0 0 0 0 0 0 0 0 0 0 0 0 0 0 0 0 0 0 0 0 0 0 0
0 0 0 0 0 0 0 0 0 0 -0 0 0 0 0 0 0 0 0 0 0 0 0 0 0 0 0 0 0 0 0 0 0 0 0 0 0 0 0 0 0 0 0
0 0 0 0 0 0 0 0 0 0 0 0 0 0 0 0 0 0 0 0 0 0 0 0 0 0 0 0 0 0 0 0 0 0 0 0 0 0 0 0 0 0 0
0 0 0 0 0 0 0 0 0 0 0 0 0 0 0 0 0 0 0 0 0 0 0 0 0 0 0 0 0 0 0 0 0 0 0 0 0 0 0 0 0 0 0
0 0 0 0 0 0 0 0 0 0 0 0 0 0 0 0 0 0 0 0 0 0 0 0 0 0 0 0 0 0 0 0 0 0 0 0 0 0 0 0 0 0 0
0 0 0 0 0 0 0 0 0 0 0 0 0 0 0 0 0 0 0 0 0 0 0 0 0 0 0 0 0 0 0 0 0 0 0 0 0 0 0 0 0 0 0
0 0 0 0 0 0 0 0 0 0 0 0 0 0 0 0 0 0 0 0 0 0 0 0 0 0 0 0 0 0 0 0 0 0 0 0 0 0 0 0 0 0 0
0 0 0 0 0 0 0 0 0 0 0 0 0 0 0 0 0 0 0 0 0 0 0 0 0 0 0 0 0 0 0 0 0 0 0 0 0 0 0 0 0 0 0
Wind_Speed_500mb
56 53 48 43 38 37 39 39 37 33 40 37 28 29 22 15 18 16 18 10 12 15 9 5 5 4 2 4 8 6 6 8 10 8 6 8 11 8 6 11 20 13 3
56 54 53 48 45 38 38 42 42 37 38 33 28 29 21 22 24 20 16 11 17 14 10 7 4 3 4 2 4 4 7 8 11 15 11 11 13 13 9 11 10 16 5
68 62 60 55 49 47 43 39 42 46 42 33 30 33 27 26 24 18 15 11 12 14 12 6 7 2 4 6 6 11 9 7 7 12 10 11 9 12 8 14 9 8 13
72 67 65 61 56 49 46 39 39 39 41 40 31 30 31 30 25 20 14 14 13 13 16 8 6 5 5 7 8 4 7 7 8 14 13 12 12 7 8 12 11 10 6
78 73 73 65 59 52 48 46 39 40 43 40 33 28 30 26 22 24 20 15 16 11 12 12 8 11 10 7 6 4 2 3 5 9 8 6 11 8 9 15 12 21 21
81 74 68 65 62 58 49 47 47 46 48 45 38 39 31 26 22 27 25 18 18 17 17 12 12 13 13 12 12 8 5 3 9 10 9 9 8 4 9 12 21 21 17
77 77 71 72 68 64 55 51 51 49 50 45 38 39 39 33 26 25 24 26 24 22 21 20 17 14 13 17 16 16 12 9 7 5 6 7 3 11 7 9 12 15 16
81 80 76 73 71 64 57 55 49 52 48 43 43 39 39 40 31 30 27 26 26 24 25 24 23 19 18 18 20 16 17 13 12 6 4 4 3 5 4 8 11 8 11
85 85 79 78 74 66 60 53 49 48 47 43 39 45 42 42 38 33 32 29 29 29 29 26 25 27 22 21 21 23 21 18 14 13 9 5 6 9 5 4 7 6 5
74 81 83 82 79 69 62 55 49 41 40 40 39 45 46 44 39 39 34 34 30 30 30 30 29 27 27 23 24 25 20 23 21 17 15 15 15 15 13 12 9 9 8
74 79 80 76 81 69 69 62 55 45 41 38 36 41 46 43 40 35 36 36 32 35 33 31 31 39 35 34 29 28 23 20 25 25 24 24 22 20 17 14 12 11 10
69 80 81 79 78 74 70 67 63 54 45 37 33 33 40 41 41 40 35 36 35 31 35 36 30 29 40 38 35 30 25 21 25 21 19 14 14 14 12 11 13 15 15
53 62 73 81 82 79 74 63 54 54 51 44 39 34 36 39 37 36 32 33 30 30 33 37 35 36 33 35 34 32 29 26 23 27 24 18 19 17 15 13 14 12 12
40 60 66 74 77 78 74 65 61 55 53 43 48 42 36 35 34 34 31 32 31 32 35 36 33 31 34 34 37 35 35 32 32 30 34 26 24 25 22 20 15 10 10
13 42 54 62 71 74 71 66 63 59 57 50 52 44 36 36 37 36 34 30 30 26 26 32 32 35 39 38 41 42 42 40 41 36 37 32 24 28 22 23 18 18 18
11 8 23 38 42 51 59 64 61 58 58 55 45 47 41 38 36 36 35 32 32 31 27 25 30 34 39 43 44 41 43 40 41 41 37 40 39 31 24 24 23 20 16
23 16 10 11 22 38 40 37 38 42 49 55 58 51 51 40 38 37 41 37 35 32 32 31 32 35 36 43 48 47 44 45 43 42 43 38 33 32 29 25 25 23 20
25 24 23 23 18 14 14 25 31 23 24 29 33 35 48 47 35 37 28 42 38 31 28 29 30 35 36 39 43 44 47 45 40 40 36 37 31 30 31 27 26 25 24
21 22 17 12 13 16 17 12 11 12 25 33 29 24 29 32 44 26 19 16 14 15 18 22 27 29 34 40 36 31 40 38 31 26 38 33 24 28 30 28 27 27 26
16 14 10 7 7 7 13 12 13 12 9 22 23 25 24 31 38 44 49 46 38 34 29 32 36 39 47 46 53 46 17 29 25 22 26 32 33 37 35 33 30 26 22
7 10 9 5 0 5 6 7 6 10 9 13 22 23 29 28 40 26 24 32 49 45 38 44 50 38 40 47 55 63 53 24 24 26 22 29 32 32 27 25 23 20 19
3 5 4 6 9 9 5 12 15 15 16 17 21 23 26 29 28 30 25 19 22 24 27 25 23 26 26 30 42 49 56 51 46 36 34 30 26 21 17 19 21 23 24
9 8 6 5 4 10 8 4 12 16 16 14 12 11 8 5 4 7 3 4 4 6 8 8 9 10 13 10 29 35 34 35 38 37 32 37 43 35 22 22 24 23 19
16 13 10 12 11 8 7 8 10 10 9 9 11 11 15 8 12 12 12 10 9 8 7 7 4 1 1 4 6 10 23 32 38 39 37 35 29 23 24 23 18 14 11
20 20 15 10 10 11 9 10 12 12 11 12 11 12 15 11 11 11 12 13 14 10 7 10 6 6 4 1 4 7 7 6 10 20 23 23 20 20 22 17 12 5 1
16 16 16 16 12 12 15 14 15 15 12 13 13 12 10 8 7 6 6 8 13 14 15 11 9 5 4 4 3 0 1 3 4 16 26 33 23 18 15 11 12 16 16
Wind_Direction_500mb
207 209 200 198 198 199 199 194 185 178 180 182 179 178 173 172 165 149 151 159 146 166 154 146 128 161 204 347 335 341 354 330 356 359 326 304 325 13 323 264 295 285 229
207 208 201 199 202 203 197 198 195 197 194 191 192 196 188 166 157 154 155 139 164 168 167 181 187 163 203 253 284 296 315 350 343 327 315 294 287 281 308 313 302 6 6
204 205 206 201 201 204 196 193 200 199 204 206 207 192 189 183 178 181 161 154 159 174 181 184 220 257 250 243 261 262 296 319 333 2 294 313 317 330 315 303 315 326 33
207 205 206 204 204 206 202 196 198 206 200 203 201 203 205 202 210 208 198 188 180 179 202 196 225 250 252 256 280 269 296 304 310 302 330 341 328 336 341 18 346 318 358
205 206 207 208 206 206 207 202 197 199 196 200 211 219 204 214 227 219 212 208 202 212 219 214 237 256 255 269 280 332 22 297 293 285 320 321 324 351 2 34 44 62 59
205 207 211 209 211 210 210 210 205 206 206 212 223 219 213 215 214 213 216 233 228 217 216 218 229 246 247 258 267 280 266 302 343 322 298 267 293 55 59 63 54 51 92
202 206 210 211 213 212 210 211 211 214 216 222 224 223 223 218 219 225 239 245 233 239 234 236 239 235 246 249 259 268 274 276 318 18 43 37 75 122 93 54 40 52 63
201 206 210 213 214 212 210 209 212 215 220 224 226 226 227 226 239 235 240 241 235 241 248 246 241 251 256 248 248 270 267 264 263 285 300 22 50 84 87 24 35 79 60
201 207 211 213 214 212 213 210 211 214 221 227 230 224 223 230 241 242 246 245 245 245 247 248 250 249 252 262 243 251 259 258 257 251 254 293 316 317 316 336 341 356 32
201 205 210 211 214 213 216 213 215 216 222 226 230 229 229 233 240 243 241 244 249 249 247 236 247 243 242 254 247 246 254 248 249 251 259 267 275 283 285 285 290 285 296
208 208 211 215 215 216 221 217 215 214 221 225 231 230 232 233 237 242 243 241 248 246 237 243 247 242 244 248 252 243 239 256 251 257 270 279 269 259 269 273 273 261 251
216 213 211 209 214 217 223 222 222 216 220 221 230 237 232 233 236 241 243 247 247 245 240 246 252 246 243 245 248 247 237 263 249 255 252 269 256 244 253 280 263 251 245
216 215 214 214 214 216 216 216 220 223 226 221 225 232 234 234 235 233 246 243 245 250 239 241 250 256 241 245 246 239 251 259 267 241 246 246 250 257 258 276 265 258 245
216 214 214 217 217 215 216 218 223 223 222 226 229 230 237 237 237 237 236 240 246 251 250 242 247 248 249 249 241 245 246 250 265 257 246 251 261 262 264 267 256 269 266
232 213 213 216 217 220 223 226 230 229 222 222 228 227 237 238 234 233 240 234 232 244 257 257 248 251 253 251 247 247 251 255 258 259 246 247 247 255 249 266 261 277 270
81 175 204 217 219 220 223 229 232 232 236 230 224 221 236 234 246 242 238 233 237 243 251 260 258 258 258 253 249 248 250 254 253 253 252 254 250 261 251 256 261 264 264
87 87 118 176 200 220 227 225 229 228 228 227 227 237 231 253 244 252 244 240 239 244 247 254 262 265 269 271 258 249 252 250 251 255 259 254 248 252 257 259 254 254 260
97 95 103 114 134 180 217 239 236 223 222 218 222 238 242 238 234 254 242 235 237 251 259 271 271 273 281 282 279 265 256 249 252 256 248 249 257 259 254 260 250 254 266
98 111 117 110 106 128 126 114 102 230 246 247 235 235 219 229 225 220 226 227 234 264 272 282 291 295 286 275 280 287 260 245 251 255 236 239 242 261 255 252 247 257 267
79 79 90 61 88 132 123 128 101 86 352 204 202 240 232 234 236 238 257 253 260 271 273 277 283 294 288 278 270 263 252 244 240 249 241 227 245 253 250 251 256 256 257
95 78 53 37 331 104 131 138 133 81 146 161 179 223 250 240 239 255 245 255 262 263 271 273 280 271 258 259 259 258 239 236 239 231 235 231 235 238 239 232 235 237 215
146 132 95 79 115 117 119 154 169 169 181 180 191 216 225 238 247 249 253 248 249 249 250 249 255 263 256 242 242 254 241 243 252 248 231 219 218 218 217 218 214 212 201
156 156 134 120 118 111 87 107 166 166 162 168 187 183 197 195 236 254 235 174 162 180 197 210 220 239 260 263 229 225 229 226 211 207 218 241 247 233 202 200 193 191 194
157 169 164 154 157 142 116 94 119 125 145 147 144 132 146 98 130 124 121 126 136 142 147 141 128 138 256 309 343 250 232 215 207 212 206 193 186 183 181 170 178 192 201
162 159 163 174 160 159 151 143 133 132 139 139 145 154 161 163 189 192 196 166 154 142 145 138 129 133 135 197 262 263 249 231 216 208 176 151 160 162 152 150 150 157 123
147 147 145 151 163 152 149 142 133 116 113 119 119 124 129 145 168 174 184 171 167 178 176 168 152 123 88 28 16 75 197 120 127 180 184 163 170 184 173 196 255 292 314
Wind_Speed_850mb
56 53 48 43 38 37 39 39 37 33 40 37 28 29 22 15 18 16 18 10 12 15 9 5 5 4 2 4 8 6 6 8 10 8 6 8 11 8 6 11 20 13 3
56 54 53 48 45 38 38 42 42 37 38 33 28 29 21 22 24 20 16 11 17 14 10 7 4 3 4 2 4 4 7 8 11 15 11 11 13 13 9 11 10 16 5
68 62 60 55 49 47 43 39 42 46 42 33 30 33 27 26 24 18 15 11 12 14 12 6 7 2 4 6 6 11 9 7 7 12 10 11 9 12 8 14 9 8 13
72 67 65 61 56 49 46 39 39 39 41 40 31 30 31 30 25 20 14 14 13 13 16 8 6 5 5 7 8 4 7 7 8 14 13 12 12 7 8 12 11 10 6
78 73 73 65 59 52 48 46 39 40 43 40 33 28 30 26 22 24 20 15 16 11 12 12 8 11 10 7 6 4 2 3 5 9 8 6 11 8 9 15 12 21 21
81 74 68 65 62 58 49 47 47 46 48 45 38 39 31 26 22 27 25 18 18 17 17 12 12 13 13 12 12 8 5 3 9 10 9 9 8 4 9 12 21 21 17
77 77 71 72 68 64 55 51 51 49 50 45 38 39 39 33 26 25 24 26 24 22 21 20 17 14 13 17 16 16 12 9 7 5 6 7 3 11 7 9 12 15 16
81 80 76 73 71 64 57 55 49 52 48 43 43 39 39 40 31 30 27 26 26 24 25 24 23 19 18 18 20 16 17 13 12 6 4 4 3 5 4 8 11 8 11
85 85 79 78 74 66 60 53 49 48 47 43 39 45 42 42 38 33 32 29 29 29 29 26 25 27 22 21 21 23 21 18 14 13 9 5 6 9 5 4 7 6 5
74 81 83 82 79 69 62 55 49 41 40 40 39 45 46 44 39 39 34 34 30 30 30 30 29 27 27 23 24 25 20 23 21 17 15 15 15 15 13 12 9 9 8
74 79 80 76 81 69 69 62 55 45 41 38 36 41 46 43 40 35 36 36 32 35 33 31 31 39 35 34 29 28 23 20 25 25 24 24 22 20 17 14 12 11 10
69 80 81 79 78 74 70 67 63 54 45 37 33 33 40 41 41 40 35 36 35 31 35 36 30 29 40 38 35 30 25 21 25 21 19 14 14 14 12 11 13 15 15
53 62 73 81 82 79 74 63 54 54 51 44 39 34 36 39 37 36 32 33 30 30 33 37 35 36 33 35 34 32 29 26 23 27 24 18 19 17 15 13 14 12 12
40 60 66 74 77 78 74 65 61 55 53 43 48 42 36 35 34 34 31 32 31 32 35 36 33 31 34 34 37 35 35 32 32 30 34 26 24 25 22 20 15 10 10
13 42 54 62 71 74 71 66 63 59 57 50 52 44 36 36 37 36 34 30 30 26 26 32 32 35 39 38 41 42 42 40 41 36 37 32 24 28 22 23 18 18 18
11 8 23 38 42 51 59 64 61 58 58 55 45 47 41 38 36 36 35 32 32 31 27 25 30 34 39 43 44 41 43 40 41 41 37 40 39 31 24 24 23 20 16
23 16 10 11 22 38 40 37 38 42 49 55 58 51 51 40 38 37 41 37 35 32 32 31 32 35 36 43 48 47 44 45 43 42 43 38 33 32 29 25 25 23 20
25 24 23 23 18 14 14 25 31 23 24 29 33 35 48 47 35 37 28 42 38 31 28 29 30 35 36 39 43 44 47 45 40 40 36 37 31 30 31 27 26 25 24
21 22 17 12 13 16 17 12 11 12 25 33 29 24 29 32 44 26 19 16 14 15 18 22 27 29 34 40 36 31 40 38 31 26 38 33 24 28 30 28 27 27 26
16 14 10 7 7 7 13 12 13 12 9 22 23 25 24 31 38 44 49 46 38 34 29 32 36 39 47 46 53 46 17 29 25 22 26 32 33 37 35 33 30 26 22
7 10 9 5 0 5 6 7 6 10 9 13 22 23 29 28 40 26 24 32 49 45 38 44 50 38 40 47 55 63 53 24 24 26 22 29 32 32 27 25 23 20 19
3 5 4 6 9 9 5 12 15 15 16 17 21 23 26 29 28 30 25 19 22 24 27 25 23 26 26 30 42 49 56 51 46 36 34 30 26 21 17 19 21 23 24
9 8 6 5 4 10 8 4 12 16 16 14 12 11 8 5 4 7 3 4 4 6 8 8 9 10 13 10 29 35 34 35 38 37 32 37 43 35 22 22 24 23 19
16 13 10 12 11 8 7 8 10 10 9 9 11 11 15 8 12 12 12 10 9 8 7 7 4 1 1 4 6 10 23 32 38 39 37 35 29 23 24 23 18 14 11
20 20 15 10 10 11 9 10 12 12 11 12 11 12 15 11 11 11 12 13 14 10 7 10 6 6 4 1 4 7 7 6 10 20 23 23 20 20 22 17 12 5 1
16 16 16 16 12 12 15 14 15 15 12 13 13 12 10 8 7 6 6 8 13 14 15 11 9 5 4 4 3 0 1 3 4 16 26 33 23 18 15 11 12 16 16
Wind_Direction_850mb
207 209 200 198 198 199 199 194 185 178 180 182 179 178 173 172 165 149 151 159 146 166 154 146 128 161 204 347 335 341 354 330 356 359 326 304 325 13 323 264 295 285 229
207 208 201 199 202 203 197 198 195 197 194 191 192 196 188 166 157 154 155 139 164 168 167 181 187 163 203 253 284 296 315 350 343 327 315 294 287 281 308 313 302 6 6
204 205 206 201 201 204 196 193 200 199 204 206 207 192 189 183 178 181 161 154 159 174 181 184 220 257 250 243 261 262 296 319 333 2 294 313 317 330 315 303 315 326 33
207 205 206 204 204 206 202 196 198 206 200 203 201 203 205 202 210 208 198 188 180 179 202 196 225 250 252 256 280 269 296 304 310 302 330 341 328 336 341 18 346 318 358
205 206 207 208 206 206 207 202 197 199 196 200 211 219 204 214 227 219 212 208 202 212 219 214 237 256 255 269 280 332 22 297 293 285 320 321 324 351 2 34 44 62 59
205 207 211 209 211 210 210 210 205 206 206 212 223 219 213 215 214 213 216 233 228 217 216 218 229 246 247 258 267 280 266 302 343 322 298 267 293 55 59 63 54 51 92
202 206 210 211 213 212 210 211 211 214 216 222 224 223 223 218 219 225 239 245 233 239 234 236 239 235 246 249 259 268 274 276 318 18 43 37 75 122 93 54 40 52 63
201 206 210 213 214 212 210 209 212 215 220 224 226 226 227 226 239 235 240 241 235 241 248 246 241 251 256 248 248 270 267 264 263 285 300 22 50 84 87 24 35 79 60
201 207 211 213 214 212 213 210 211 214 221 227 230 224 223 230 241 242 246 245 245 245 247 248 250 249 252 262 243 251 259 258 257 251 254 293 316 317 316 336 341 356 32
201 205 210 211 214 213 216 213 215 216 222 226 230 229 229 233 240 243 241 244 249 249 247 236 247 243 242 254 247 246 254 248 249 251 259 267 275 283 285 285 290 285 296
208 208 211 215 215 216 221 217 215 214 221 225 231 230 232 233 237 242 243 241 248 246 237 243 247 242 244 248 252 243 239 256 251 257 270 279 269 259 269 273 273 261 251
216 213 211 209 214 217 223 222 222 216 220 221 230 237 232 233 236 241 243 247 247 245 240 246 252 246 243 245 248 247 237 263 249 255 252 269 256 244 253 280 263 251 245
216 215 214 214 214 216 216 216 220 223 226 221 225 232 234 234 235 233 246 243 245 250 239 241 250 256 241 245 246 239 251 259 267 241 246 246 250 257 258 276 265 258 245
216 214 214 217 217 215 216 218 223 223 222 226 229 230 237 237 237 237 236 240 246 251 250 242 247 248 249 249 241 245 246 250 265 257 246 251 261 262 264 267 256 269 266
232 213 213 216 217 220 223 226 230 229 222 222 228 227 237 238 234 233 240 234 232 244 257 257 248 251 253 251 247 247 251 255 258 259 246 247 247 255 249 266 261 277 270
81 175 204 217 219 220 223 229 232 232 236 230 224 221 236 234 246 242 238 233 237 243 251 260 258 258 258 253 249 248 250 254 253 253 252 254 250 261 251 256 261 264 264
87 87 118 176 200 220 227 225 229 228 228 227 227 237 231 253 244 252 244 240 239 244 247 254 262 265 269 271 258 249 252 250 251 255 259 254 248 252 257 259 254 254 260
97 95 103 114 134 180 217 239 236 223 222 218 222 238 242 238 234 254 242 235 237 251 259 271 271 273 281 282 279 265 256 249 252 256 248 249 257 259 254 260 250 254 266
98 111 117 110 106 128 126 114 102 230 246 247 235 235 219 229 225 220 226 227 234 264 272 282 291 295 286 275 280 287 260 245 251 255 236 239 242 261 255 252 247 257 267
79 79 90 61 88 132 123 128 101 86 352 204 202 240 232 234 236 238 257 253 260 271 273 277 283 294 288 278 270 263 252 244 240 249 241 227 245 253 250 251 256 256 257
95 78 53 37 331 104 131 138 133 81 146 161 179 223 250 240 239 255 245 255 262 263 271 273 280 271 258 259 259 258 239 236 239 231 235 231 235 238 239 232 235 237 215
146 132 95 79 115 117 119 154 169 169 181 180 191 216 225 238 247 249 253 248 249 249 250 249 255 263 256 242 242 254 241 243 252 248 231 219 218 218 217 218 214 212 201
156 156 134 120 118 111 87 107 166 166 162 168 187 183 197 195 236 254 235 174 162 180 197 210 220 239 260 263 229 225 229 226 211 207 218 241 247 233 202 200 193 191 194
157 169 164 154 157 142 116 94 119 125 145 147 144 132 146 98 130 124 121 126 136 142 147 141 128 138 256 309 343 250 232 215 207 212 206 193 186 183 181 170 178 192 201
162 159 163 174 160 159 151 143 133 132 139 139 145 154 161 163 189 192 196 166 154 142 145 138 129 133 135 197 262 263 249 231 216 208 176 151 160 162 152 150 150 157 123
147 147 145 151 163 152 149 142 133 116 113 119 119 124 129 145 168 174 184 171 167 178 176 168 152 123 88 28 16 75 197 120 127 180 184 163 170 184 173 196 255 292 314